Alicante, Spain

12:38 AM CET on December 09, 2016 (GMT +0100)
Alicante

Weather History for LEAL - March, 2012

Change the Weather History Date:

Tuesday, March 27, 2012

  Actual Average Record
Temperature  
Mean Temperature 56 °F -  
Max Temperature 68 °F 67 °F 77 °F (2015)
Min Temperature 45 °F 50 °F 42 °F (1997)
Degree Days  
Heating Degree Days 8    
Growing Degree Days 6 (Base 50)    
Moisture  
Dew Point 44 °F    
Average Humidity 59    
Maximum Humidity 82    
Minimum Humidity 24    
Precipitation  
Precipitation 0.00 in - - ()
Sea Level Pressure  
Sea Level Pressure 30.25 in    
Wind  
Wind Speed 5 mph ()    
Max Wind Speed 22 mph    
Max Gust Speed -    
Visibility 9.6 miles    
Events      
Averages and records for this station are not official NWS values.
T = Trace of Precipitation, MM = Missing Value Source: Averaged Metar Reports

Daily Weather History Graph

Daily Weather History Graph

Search for Another Location

Airport or City:

Trip Planner

Search our weather history database for the weather conditions in past years. The results will help you decide how hot, cold, wet, or windy it might be!

Date:

Astronomy

Mar. 27, 2012 Rise Set
Actual Time 7:54 AM CEST 8:21 PM CEST
Civil Twilight 7:28 AM CEST 8:47 PM CEST
Nautical Twilight 6:56 AM CEST 9:18 PM CEST
Astronomical Twilight 6:25 AM CEST 9:50 PM CEST
Moon 10:18 AM CEST (3/27) 12:13 AM CEST (3/27)
Length of Visible Light 13h 19m
Length of Day
12h 26m
Waxing Crescent, 20% of the Moon is Illuminated
Mar 27
Waxing Crescent
Mar 30
First Quarter
Apr 6
Full
Apr 13
Last Quarter
Apr 21
New

Hourly Weather History & Observations

Time (CEST) Temp. Windchill Dew Point Humidity Pressure Visibility Wind Dir Wind Speed Gust Speed Precip Events Conditions
12:00 AM 57.2 °F - 42.8 °F 59% 30.27 in - Variable 2.3 mph - N/A   Clear
12:30 AM 55.4 °F - 42.8 °F 63% 30.27 in - Calm Calm - N/A   Clear
1:00 AM 51.8 °F - 44.6 °F 76% 30.27 in - WNW 3.5 mph - N/A   Clear
1:30 AM 50.0 °F - 42.8 °F 76% 30.24 in - Variable 2.3 mph - N/A   Clear
2:00 AM 51 °F - 40 °F 55% 30.27 in 9 mi Calm Calm - -   Clear
2:00 AM 51.8 °F - 42.8 °F 71% 30.24 in - Variable 1.2 mph - N/A   Clear
2:30 AM 51.8 °F - 41.0 °F 67% 30.24 in - Calm Calm - N/A   Clear
3:00 AM 48.2 °F - 41.0 °F 76% 30.24 in - Calm Calm - N/A   Clear
3:30 AM 46.4 °F - 41.0 °F 81% 30.24 in - Calm Calm - N/A   Clear
4:00 AM 46.4 °F - 41.0 °F 81% 30.24 in - Variable 2.3 mph - N/A   Clear
4:30 AM 48.2 °F - 41.0 °F 76% 30.24 in - Variable 1.2 mph - N/A   Clear
5:30 AM 48.2 °F - 39.2 °F 71% 30.24 in - Variable 2.3 mph - N/A   Clear
6:00 AM 46.4 °F 45.2 °F 41.0 °F 81% 30.24 in - West 3.5 mph - N/A   Clear
6:30 AM 46.4 °F - 39.2 °F 76% 30.24 in - Variable 1.2 mph - N/A   Clear
7:00 AM 50.0 °F - 41.0 °F 71% 30.24 in - Variable 2.3 mph - N/A   Clear
7:30 AM 50.0 °F - 39.2 °F 66% 30.24 in 6.2 mi Calm Calm - N/A   Partly Cloudy
8:00 AM 49 °F - 38 °F 55% 30.26 in 9 mi NW 3.5 mph - -   Clear
8:00 AM 50.0 °F - 41.0 °F 71% 30.24 in - NW 3.5 mph - N/A   Clear
8:30 AM 51.8 °F - 41.0 °F 67% 30.24 in - WNW 3.5 mph - N/A   Clear
9:00 AM 55.4 °F - 42.8 °F 63% 30.27 in - Variable 2.3 mph - N/A   Clear
9:30 AM 57.2 °F - 42.8 °F 59% 30.27 in - Calm Calm - N/A   Clear
10:00 AM 60.8 °F - 41.0 °F 48% 30.27 in - Calm Calm - N/A   Clear
10:30 AM 64.4 °F - 37.4 °F 37% 30.27 in - NNE 4.6 mph - N/A   Clear
11:00 AM 66.2 °F - 42.8 °F 43% 30.27 in - Variable 2.3 mph - N/A   Clear
11:30 AM 66.2 °F - 37.4 °F 35% 30.27 in - East 6.9 mph - N/A   Clear
12:00 PM 66.2 °F - 41.0 °F 40% 30.27 in - East 12.7 mph - N/A   Clear
12:30 PM 66.2 °F - 41.0 °F 40% 30.27 in - East 13.8 mph - N/A   Clear
1:00 PM 68.0 °F - 41.0 °F 37% 30.27 in - ENE 16.1 mph - N/A   Clear
1:30 PM 68.0 °F - 42.8 °F 40% 30.27 in - East 17.3 mph - N/A   Clear
2:00 PM 68 °F - 39 °F 24% 30.27 in 12 mi East 17.3 mph - -  
2:00 PM 68.0 °F - 42.8 °F 40% 30.27 in - East 17.3 mph - N/A   Clear
2:30 PM 68.0 °F - 42.8 °F 40% 30.24 in - East 18.4 mph - N/A   Clear
3:00 PM 68.0 °F - 42.8 °F 40% 30.24 in - East 17.3 mph - N/A   Clear
3:30 PM 68.0 °F - 50.0 °F 52% 30.24 in - East 12.7 mph - N/A   Clear
4:00 PM 66.2 °F - 50.0 °F 56% 30.24 in - East 15.0 mph - N/A   Clear
4:30 PM 68.0 °F - 46.4 °F 46% 30.24 in - East 19.6 mph - N/A   Clear
5:00 PM 68.0 °F - 46.4 °F 46% 30.21 in - East 19.6 mph - N/A   Clear
5:30 PM 68.0 °F - 42.8 °F 40% 30.21 in - East 21.9 mph - N/A   Clear
6:00 PM 66.2 °F - 44.6 °F 46% 30.21 in - East 21.9 mph - N/A   Clear
6:30 PM 66.2 °F - 44.6 °F 46% 30.21 in - East 20.7 mph - N/A   Clear
7:00 PM 64.4 °F - 46.4 °F 52% 30.21 in - East 17.3 mph - N/A   Clear
7:30 PM 64.4 °F - 48.2 °F 56% 30.24 in - ENE 15.0 mph - N/A   Clear
8:00 PM 61 °F - 47 °F 50% 30.25 in 12 mi East 11.5 mph - -  
8:00 PM 60.8 °F - 50.0 °F 68% 30.24 in - East 11.5 mph - N/A   Clear
8:30 PM 59.0 °F - 53.6 °F 82% 30.24 in - ENE 10.4 mph - N/A   Clear
9:00 PM 59.0 °F - 53.6 °F 82% 30.24 in - ENE 11.5 mph - N/A   Clear
9:30 PM 59.0 °F - 50.0 °F 72% 30.24 in - NNE 6.9 mph - N/A   Clear
10:00 PM 59.0 °F - 48.2 °F 67% 30.27 in - NNE 4.6 mph - N/A   Clear
10:30 PM 59.0 °F - 48.2 °F 67% 30.27 in - Calm Calm - N/A   Clear
11:00 PM 57.2 °F - 48.2 °F 72% 30.27 in - Variable 1.2 mph - N/A   Clear
11:30 PM 57.2 °F - 48.2 °F 72% 30.27 in - Variable 2.3 mph - N/A   Clear